[[{"header":{"parameterUnit":"m.s-1","parameterCategory":1,"la1":30.2991,"la2":30.254,"lo1":-89.0895,"lo2":-89.0444,"dy":0.0017,"dx":0.0017,"nx":28,"ny":28,"refTime":"2025-11-29T09:00:00:Z","depth":0,"parameterNumber":2,"parameterNumberName":"U-component_of_WINDS"},"data":[0,0,0,0,0,0,0,0,0,0,0,0,0,0,0,0,0,0,0,0,0,0,0,0,0,0,0,0,0,0,0,0,0,0,0,0,0,0,0,0,0,0,0,0,0,0,0,0,0,0,0,0,0,0,0,0,0,0,-6.0038,-6.0039,0,-6.0164,-6.0166,-6.0167,-6.0159,-6.0157,-6.0156,-6.0154,-6.028,-6.0285,-6.029,0,0,0,0,0,0,0,0,0,0,0,0,0,-5.9786,-5.9791,-6.0038,-6.0039,-6.0041,-6.0164,-6.0166,-6.0168,-6.016,-6.0157,-6.0155,-6.0153,-6.0278,-6.0284,-6.029,0,0,0,0,0,0,0,0,0,0,0,0,0,-5.9902,-5.9792,-6.0038,-6.0052,-6.0055,-6.0164,-6.0166,-6.0168,-6.016,-6.0157,-6.0155,-6.0152,-6.0276,-6.0283,-6.0291,-6.0393,0,0,-6.0314,-6.0317,0,0,0,0,0,0,0,0,-5.9895,-5.9911,-6.0048,-6.0051,-6.0054,-6.0143,-6.0123,-6.0243,-6.0161,-6.012,-6.0154,-6.0151,-6.0236,-6.0247,-6.0277,-6.0399,-6.0404,-6.0315,-6.0319,-6.0323,-6.0325,0,0,0,0,0,0,0,-5.9887,-5.9906,-6.0088,-6.005,-6.0054,-6.0051,-6.0064,-6.0146,-6.0192,-6.0123,-6.0123,-6.0138,-6.0237,-6.0269,-6.028,-6.0406,-6.0315,-6.0321,-6.0326,-6.0329,-6.0616,-6.0619,0,0,0,0,0,0,-5.9877,-5.9899,-6.0084,-6.0092,-5.9967,-6.0058,-6.0073,-6.0117,-6.0191,-6.02,-6.0141,-6.0137,-6.0258,-6.0271,-6.0284,-6.0406,-6.0323,-6.033,-6.0334,-6.0613,-6.0616,-6.062,0,0,0,0,0,0,-5.9871,-5.9893,-6.0079,-5.9995,-6.0019,-6.0065,-6.0115,-6.0121,-6.0153,-6.0204,-6.0212,-6.0165,-6.0256,-6.0273,-6.0366,-6.041,-6.0333,-6.034,-6.0609,-6.0614,-6.0618,-6.0651,0,0,0,0,0,0,-5.9864,-5.9891,-5.9931,-5.9996,-6.0023,-6.0159,-6.0118,-6.0126,-6.0167,-6.0164,-6.0229,-6.0237,-6.0255,-6.0354,-6.0373,-6.0419,-6.0346,-6.0605,-6.0611,-6.0617,-6.0646,-6.0657,-6.0665,0,0,0,0,0,-5.9855,-5.9935,-5.9933,-5.9956,-6.0074,-6.0162,-6.0177,-6.0197,-6.0171,-6.021,-6.0243,-6.0235,-6.0403,-6.0364,-6.0385,-6.0434,-6.0602,-6.0609,-6.0616,-6.0642,-6.0655,-6.0665,0,0,0,0,0,0,-5.9873,-5.9944,-5.9943,-6.0047,-6.0099,-6.016,-6.0211,-6.021,-6.027,-6.0264,-6.0286,-6.0301,-6.0393,-6.0423,-6.0378,-6.0535,-6.0499,-6.051,-6.0511,-6.0524,-6.0533,-6.0522,-6.0352,0,0,0,0,0,-5.989,-5.9956,-6.0014,-6.01,-6.0126,-6.0165,-6.0203,-6.0215,-6.0268,-6.029,-6.0329,-6.0381,-6.0445,-6.0487,-6.0549,-6.0652,-6.0664,-6.0696,-6.0705,-6.0713,-6.0721,-6.0776,-6.079,-6.0642,-6.0642,-6.0642,0,0,-5.9923,-5.997,-6.0011,-6.0105,-6.0146,-6.0213,-6.0183,-6.0255,-6.0303,-6.03,-6.0389,-6.042,-6.0479,-6.0577,-6.0622,-6.0605,-6.0765,-6.0722,-6.0727,-6.0732,-6.0784,-6.0798,-6.081,-6.0647,-6.0646,-6.0645,0,0,-6.0018,-6.0062,-6.0137,-6.018,-6.0243,-6.0268,-6.0286,-6.0349,-6.0369,-6.0459,-6.0458,-6.0516,-6.0627,-6.0668,-6.0704,-6.0815,-6.0809,-6.0835,-6.0882,-6.0935,-6.0946,-6.0957,-6.0993,-6.1006,-6.0844,-6.0844,-6.0844,0,-6.0051,-6.0153,-6.0176,-6.0248,-6.0288,-6.029,-6.0365,-6.0405,-6.0485,-6.0512,-6.0493,-6.0631,-6.0671,-6.0777,-6.0804,-6.0834,-6.0854,-6.0825,-6.0943,-6.0954,-6.0964,-6.0999,-6.1013,-6.0846,-6.0846,-6.0846,-6.0845,0,-6.0189,-6.0259,-6.0313,-6.039,-6.0437,-6.0511,-6.0543,-6.0588,-6.0595,-6.0622,-6.0713,-6.0761,-6.0832,-6.0859,-6.0867,-6.0966,-6.0953,-6.0939,-6.0902,-6.098,-6.1013,-6.1027,-6.085,-6.0849,-6.0848,-6.0848,0,0,-6.0296,-6.0387,-6.0405,-6.044,-6.051,-6.0564,-6.0637,-6.0708,-6.0744,-6.08,-6.086,-6.0954,-6.0941,-6.0981,-6.0994,-6.1041,-6.1122,-6.102,-6.1022,-6.1035,-6.1231,-6.1238,-6.1254,-6.112,-6.1123,-6.1125,-6.1225,0,-6.0396,-6.0526,-6.0549,-6.0662,-6.0725,-6.0729,-6.0792,-6.0841,-6.0868,-6.0925,-6.0955,-6.102,-6.0999,-6.1023,-6.107,-6.1102,-6.1161,-6.1096,-6.1173,-6.1176,-6.1155,-6.1272,-6.1281,-6.1372,-6.1238,-6.124,-6.1242,0,-6.0528,-6.0587,-6.0707,-6.0768,-6.0795,-6.0852,-6.0917,-6.0973,-6.1028,-6.1045,-6.109,-6.1098,-6.1172,-6.1135,-6.1236,-6.1191,-6.1225,-6.1245,-6.1249,-6.1254,-6.1211,-6.1276,-6.1402,-6.1414,-6.1263,-6.1262,-6.126,0,-6.059,-6.07,-6.0785,-6.0815,-6.0889,-6.0928,-6.0961,-6.1014,-6.1054,-6.1112,-6.1138,-6.1203,-6.1238,-6.1288,-6.1312,-6.1283,-6.1411,-6.1376,-6.1424,-6.1423,-6.1448,-6.1445,-6.1577,-6.1476,-6.1475,-6.1475,-6.1475,0,-6.0696,-6.0768,-6.0814,-6.0866,-6.0946,-6.0972,-6.105,-6.1082,-6.1129,-6.1186,-6.1194,-6.1247,-6.1278,-6.1335,-6.1355,-6.1434,-6.1451,-6.1464,-6.1468,-6.1461,-6.1459,-6.1481,-6.1474,-6.1479,-6.1478,-6.1477,-6.1477,0,-6.0777,-6.0811,-6.0904,-6.0966,-6.0984,-6.104,-6.1093,-6.1143,-6.117,-6.1242,-6.126,-6.1303,-6.1371,-6.1401,-6.1485,-6.1498,-6.1588,-6.1589,-6.1569,-6.1569,-6.1614,-6.1608,-6.1761,-6.1781,-6.167,-6.1671,-6.1672,0,-6.0841,-6.0897,-6.0966,-6.1005,-6.1038,-6.1101,-6.1143,-6.1171,-6.1213,-6.128,-6.1321,-6.139,-6.1445,-6.1553,-6.1591,-6.1655,-6.1655,-6.1704,-6.1664,-6.1655,-6.1651,-6.1646,-6.1651,-6.171,-6.1711,-6.1712,-6.1713,0,-6.095,-6.0964,-6.1024,-6.1089,-6.1139,-6.1192,-6.1243,-6.1275,-6.131,-6.1358,-6.1427,-6.1471,-6.1556,-6.1623,-6.1689,-6.1721,-6.1722,-6.1726,-6.174,-6.1732,-6.1716,-6.1722,-6.1584,-6.1721,-6.172,-6.172,-6.1719,-6.1719,-6.1022,-6.107,-6.1126,-6.1192,-6.1234,-6.1282,-6.1332,-6.1366,-6.1425,-6.1497,-6.151,-6.1583,-6.1637,-6.1726,-6.176,-6.1817,-6.1805,-6.1826,-6.183,-6.1834,-6.1835,-6.1711,-6.183,-6.183,-6.1829,-6.1829,-6.1829,0,-6.1128,-6.1164,-6.1225,-6.1297,-6.1348,-6.1348,-6.1405,-6.1447,-6.1512,-6.1563,-6.1617,-6.1696,-6.1761,-6.1805,-6.187,-6.1907,-6.1909,-6.1923,-6.1919,-6.1925,-6.1844,-6.1824,-6.192,-6.192,-6.192,-6.192,-6.192,-6.192,-6.1188,-6.127,-6.129,-6.1392,-6.1428,-6.15,-6.1533,-6.1576,-6.1617,-6.1705,-6.1759,-6.1787,-6.1834,-6.1903,-6.1962,-6.1973,-6.1995,-6.2009,-6.2019,-6.1941,-6.1931,-6.1922,-6.1903,-6.2015,-6.2015,-6.2095,-6.2096,-6.2097]},{"header":{"parameterUnit":"m.s-1","parameterCategory":1,"la1":30.2991,"la2":30.254,"lo1":-89.0895,"lo2":-89.0444,"dy":0.0017,"dx":0.0017,"nx":28,"ny":28,"refTime":"2025-11-29T09:00:00:Z","depth":0,"parameterNumber":3,"parameterNumberName":"V-component_of_WINDS"},"data":[0,0,0,0,0,0,0,0,0,0,0,0,0,0,0,0,0,0,0,0,0,0,0,0,0,0,0,0,0,0,0,0,0,0,0,0,0,0,0,0,0,0,0,0,0,0,0,0,0,0,0,0,0,0,0,0,0,0,3.4561,3.4562,0,3.4595,3.4595,3.4595,3.4522,3.4519,3.4517,3.4515,3.4548,3.4551,3.4554,0,0,0,0,0,0,0,0,0,0,0,0,0,3.4433,3.4436,3.4561,3.4562,3.4562,3.4594,3.4595,3.4595,3.4522,3.4519,3.4516,3.4514,3.4547,3.4551,3.4554,0,0,0,0,0,0,0,0,0,0,0,0,0,3.448,3.4436,3.4561,3.4529,3.4527,3.4594,3.4595,3.4596,3.4523,3.4519,3.4516,3.4512,3.4546,3.455,3.4555,3.4654,0,0,3.4569,3.4571,0,0,0,0,0,0,0,0,3.4477,3.4484,3.4534,3.4532,3.4529,3.455,3.4562,3.4615,3.4524,3.4524,3.4515,3.4511,3.4552,3.4556,3.457,3.4656,3.4657,3.4569,3.4572,3.4574,3.4576,0,0,0,0,0,0,0,3.4474,3.4483,3.4574,3.4534,3.4532,3.4513,3.4516,3.4572,3.4557,3.4524,3.4519,3.4524,3.455,3.4565,3.457,3.4658,3.4569,3.4573,3.4576,3.4578,3.4827,3.4831,0,0,0,0,0,0,3.4475,3.448,3.4573,3.4575,3.4494,3.4518,3.4521,3.4547,3.4557,3.4555,3.4527,3.452,3.4559,3.4564,3.4571,3.4687,3.4574,3.4579,3.4581,3.4823,3.4828,3.4832,0,0,0,0,0,0,3.4472,3.4484,3.4572,3.4526,3.4536,3.4524,3.4554,3.455,3.4565,3.4559,3.4556,3.4545,3.4556,3.4564,3.4634,3.4687,3.4581,3.4585,3.4819,3.4825,3.483,3.4922,0,0,0,0,0,0,3.4469,3.4483,3.4522,3.4528,3.4539,3.4636,3.4557,3.4553,3.4573,3.4565,3.4575,3.4574,3.4554,3.4628,3.4639,3.4692,3.4588,3.4814,3.4821,3.4828,3.4914,3.493,3.4944,0,0,0,0,0,3.4465,3.4546,3.4524,3.4535,3.4586,3.4639,3.4645,3.4621,3.4578,3.4616,3.4612,3.4573,3.468,3.4635,3.4647,3.4703,3.481,3.4819,3.4827,3.4907,3.4927,3.4944,0,0,0,0,0,0,3.4546,3.4546,3.4522,3.4608,3.4624,3.4626,3.4673,3.4643,3.4671,3.4662,3.4632,3.4634,3.471,3.4713,3.4664,3.4799,3.4738,3.4749,3.4794,3.4813,3.4828,3.4825,3.4592,0,0,0,0,0,3.4574,3.4617,3.4615,3.4691,3.47,3.4686,3.4707,3.4688,3.4703,3.4709,3.471,3.4726,3.4763,3.4788,3.4822,3.4914,3.4915,3.4958,3.4973,3.4985,3.4995,3.5044,3.5063,3.486,3.486,3.486,0,0,3.4632,3.4638,3.4667,3.4707,3.4717,3.4762,3.4692,3.4742,3.4775,3.4717,3.4783,3.4784,3.48,3.4882,3.4917,3.4886,3.5052,3.4996,3.5006,3.501,3.5055,3.5074,3.5091,3.4866,3.4865,3.4864,0,0,3.4761,3.477,3.4834,3.4845,3.4862,3.4851,3.4867,3.4874,3.4873,3.4939,3.4896,3.4934,3.4999,3.5011,3.5026,3.516,3.5125,3.5172,3.5249,3.5297,3.5313,3.5327,3.5374,3.5391,3.5182,3.5182,3.5182,0,3.4831,3.4897,3.487,3.4924,3.4942,3.4893,3.4957,3.4969,3.4996,3.501,3.4975,3.5054,3.5061,3.5145,3.5177,3.5191,3.5208,3.517,3.5313,3.5326,3.5339,3.5383,3.5401,3.5188,3.5187,3.5186,3.5186,0,3.4982,3.5029,3.5078,3.5105,3.5129,3.5188,3.517,3.5198,3.5176,3.5169,3.5237,3.5243,3.5277,3.5296,3.5275,3.5376,3.5356,3.5318,3.5255,3.5364,3.5405,3.5422,3.5195,3.5193,3.5192,3.519,0,0,3.5163,3.5175,3.5193,3.5204,3.5219,3.5254,3.531,3.5343,3.5367,3.5387,3.5433,3.5489,3.5453,3.547,3.545,3.5492,3.5596,3.5448,3.5447,3.5474,3.5707,3.5736,3.5756,3.5574,3.5577,3.5579,3.5706,0,3.529,3.5386,3.5364,3.5459,3.5501,3.5454,3.5503,3.5516,3.5512,3.5546,3.5541,3.558,3.553,3.554,3.558,3.5575,3.5642,3.5566,3.5615,3.5617,3.5612,3.5778,3.5808,3.5928,3.5722,3.5724,3.5726,0,3.5451,3.5477,3.5577,3.5583,3.56,3.5644,3.5673,3.5706,3.5721,3.5714,3.5734,3.5705,3.576,3.5698,3.5772,3.5721,3.574,3.5741,3.5745,3.5748,3.5678,3.5785,3.5965,3.5983,3.5752,3.575,3.5748,0,3.5572,3.5632,3.5699,3.571,3.572,3.5752,3.5758,3.5769,3.579,3.5815,3.5828,3.5859,3.5876,3.5901,3.5881,3.5838,3.5959,3.5895,3.5955,3.5955,3.5982,3.598,3.6167,3.5995,3.5995,3.5995,3.5994,0,3.5716,3.5779,3.5754,3.5795,3.5863,3.5837,3.5905,3.5905,3.5915,3.5955,3.5916,3.5955,3.5927,3.5963,3.5948,3.6012,3.602,3.6016,3.6011,3.6019,3.602,3.6031,3.6022,3.5999,3.5998,3.5997,3.5997,0,3.5863,3.5849,3.5919,3.5922,3.5925,3.5975,3.5977,3.6015,3.6008,3.6059,3.6069,3.6057,3.6097,3.6081,3.6123,3.6113,3.6195,3.6179,3.619,3.6186,3.6246,3.6241,3.6446,3.6471,3.6284,3.6286,3.6287,0,3.5955,3.6002,3.6011,3.6035,3.6043,3.6083,3.6104,3.608,3.6103,3.6123,3.6159,3.6196,3.6224,3.629,3.6285,3.6317,3.6301,3.6371,3.6306,3.6312,3.6302,3.6299,3.6303,3.6384,3.6386,3.6388,3.639,0,3.6121,3.6111,3.6144,3.6174,3.6201,3.6224,3.6243,3.6265,3.6241,3.627,3.6311,3.6333,3.6376,3.6413,3.6441,3.6446,3.6414,3.641,3.6426,3.6434,3.6438,3.6436,3.6225,3.6405,3.6404,3.6403,3.6402,3.6401,3.6243,3.6282,3.6294,3.6331,3.6343,3.6362,3.6398,3.6395,3.6428,3.6461,3.6445,3.6492,3.6505,3.6539,3.6549,3.6585,3.6557,3.658,3.6586,3.6591,3.6599,3.6433,3.659,3.659,3.6589,3.6589,3.6588,0,3.6405,3.6411,3.6446,3.6474,3.6503,3.6471,3.649,3.6517,3.6559,3.6573,3.6602,3.6648,3.6684,3.6681,3.6714,3.6743,3.6729,3.6752,3.675,3.6751,3.6622,3.6605,3.6763,3.6763,3.6763,3.6763,3.6763,3.6763,3.6494,3.6558,3.655,3.662,3.6625,3.6671,3.6684,3.6701,3.6713,3.6766,3.6796,3.6794,3.6802,3.6834,3.6865,3.6863,3.6877,3.6906,3.6899,3.6778,3.676,3.6744,3.6728,3.6909,3.6909,3.7025,3.7026,3.7027]}]]